Regional Weather Roundup
Issued by NWS

Home | Current Version | Previous Version | Graphics & Text | Print | Product List | Glossary On
Versions: 1 2 3 4 5 6 7 8 9 10 11 12 13 14 15 16 17 18 19 20 21 22 23 24 25 26 27 28 29 30 31 32 33 34 35 36 37 38 39 40 41 42 43 44 45 46 47 48 49 50
000
ASUS43 KMKX 280121
RWRWI

WISCONSIN REGIONAL WEATHER ROUNDUP
NATIONAL WEATHER SERVICE MILWAUKEE/SULLIVAN WI
700 PM CST SAT DEC 27 2014

NOTE: "FAIR" INDICATES FEW OR NO CLOUDS BELOW 12,000 FEET WITH NO
SIGNIFICANT WEATHER AND/OR OBSTRUCTIONS TO VISIBILITY.

WIZ001-002-006>008-014>016-023>028-280200-
NORTHWEST WISCONSIN

CITY           SKY/WX    TMP DP  RH WIND       PRES   REMARKS
SUPERIOR ARPT  CLOUDY    23   9  54 SW5       30.02S WCI  17
ASHLAND        CLOUDY    16  12  84 S6        30.01S WCI   7
HAYWARD        FAIR      12  10  92 SW5       30.02R WCI   4
SIREN          PTCLDY    18  11  72 SW7       30.05S WCI   9
CUMBERLAND     MOCLDY     9   5  85 SW8       30.03S WCI  -4
RICE LAKE      CLEAR     13  12  95 SW3       30.06S
CHETEK         CLEAR     12  11  96 CALM      30.06R
LADYSMITH      CLEAR     16  13  90 SW5       30.05S WCI   9
EAU CLAIRE     CLEAR     17  13  84 SW5       30.07F WCI  10
MENOMONIE      CLEAR     18  14  84 SW9       30.08S WCI   7
NEW RICHMOND   CLEAR     13   9  85 SW7       30.09R WCI   2
OSCEOLA        PTCLDY    15   9  76 W7        30.12R WCI   5
$$

WIZ003>005-009-010-017-018-280200-
NORTH CENTRAL WISCONSIN

CITY           SKY/WX    TMP DP  RH WIND       PRES   REMARKS
MANITOWISH WTR CLEAR     17  15  93 W5        29.97R WCI  10
ARBOR VITAE    CLEAR     21  18  86 W7        29.97R WCI  13
WOODRUFF       CLEAR     21  18  86 W7        29.97R WCI  13
RHINELANDER    PTCLDY    20  15  81 W9        29.97R WCI   9
EAGLE RIVER    MOCLDY    22  17  79 W8        29.95R WCI  13
LAND O LAKES   MOCLDY    23  19  87 W7        29.95R WCI  14
PHILLIPS       CLEAR     15  13  92 SW3       29.99S
TOMAHAWK       MOCLDY    20  17  86 CALM      30.00R
MEDFORD        PTCLDY    18  15  88 W7        30.01S WCI   8
MERRILL        PTCLDY    23  19  83 W7        30.00S WCI  15
$$

WIZ029-030-035-036-043>047-280200-
CENTRAL WISCONSIN

CITY           SKY/WX    TMP DP  RH WIND       PRES   REMARKS
WAUSAU         MOCLDY    24  18  77 NW10      30.00S WCI  14
MOSINEE        CLOUDY    25  23  93 W12G17    30.02S WCI  14
MARSHFIELD     CLOUDY    22  17  81 W13       30.05R WCI  10
STEVENS POINT  CLOUDY    24  19  83 W7G16     30.05R WCI  15
WAUPACA        CLOUDY    31  24  74 W15       30.04R WCI  20
WAUTOMA        CLOUDY    29  24  81 NW12      30.07R WCI  19
WISC RAPIDS    CLOUDY    25  18  74 W9        30.08R WCI  15
CAMP DOUGLAS   CLOUDY    26  26  98 W12       30.08S WCI  16
$$

WIZ011>013-019>022-031-037>040-048>050-280200-
NORTHEAST WISCONSIN

CITY           SKY/WX    TMP DP  RH WIND       PRES   REMARKS
ANTIGO         CLOUDY    24  19  81 W9        29.97S WCI  15
SHAWANO        CLOUDY    33  28  79 W6        30.00R WCI  28
OCONTO         CLOUDY    32  31  96 W8        29.99R WCI  25
STURGEON BAY   CLOUDY    32  28  86 W5        30.00R WCI  27
GREEN BAY      PTCLDY    33  28  81 W12       30.00R WCI  24
MANITOWOC      CLOUDY    34  32  92 NW9       30.00R WCI  27
APPLETON       MOCLDY    32  28  86 W16       30.02R WCI  21
CLINTONVILLE   CLOUDY    32  23  69 NW13G20   30.02R WCI  22
OSHKOSH        CLOUDY    31  25  78 W15G22    30.03R WCI  20
$$

WIZ032>034-041-042-053>061-280200-
SOUTHWEST WISCONSIN

CITY           SKY/WX    TMP DP  RH WIND       PRES   REMARKS
LA CROSSE      CLEAR     23  16  74 W6        30.14R WCI  16
SPARTA         CLOUDY    24  18  76 W8        30.12R WCI  15
VIROQUA        CLOUDY    23  21  91 W10       30.10R WCI  12
BOSCOBEL       CLOUDY    27  19  72 W9        30.15R WCI  18
PRAIRIE DU CHI CLOUDY    24  17  75 NW9       30.16S WCI  15
PLATTEVILLE    CLOUDY    27  24  87 W12G20    30.13S WCI  17
$$

WIZ056-057-062-063-064-067-068-280200-
SOUTH CENTRAL WISCONSIN

CITY           SKY/WX    TMP DP  RH WIND       PRES   REMARKS
REEDSBURG      CLOUDY    27  21  78 W12       30.09R WCI  17
BARABOO/DELLS  CLOUDY    28  22  76 NW10G17   30.08R WCI  19
LONE ROCK      CLOUDY    32  22  66 W13G20    30.11R WCI  22
MINERAL POINT  CLOUDY    30  25  80 W16       30.09S WCI  19
MADISON        CLOUDY    31  24  75 W13G18    30.08R WCI  21
MIDDLETON      CLOUDY    32  25  77 W10       30.08S WCI  23
WATERTOWN      CLOUDY    31  28  85 W8        30.06R WCI  24
MONROE         CLOUDY    30  27  86 W9        30.09R WCI  22
JANESVILLE     CLOUDY    32  27  80 W12       30.09R WCI  23
$$

WIZ051-052-058>065-066-070>072-280200-
SOUTHEAST WISCONSIN

CITY           SKY/WX    TMP DP  RH WIND       PRES   REMARKS
MILWAUKEE      CLOUDY    35  25  66 NW15      30.07R WCI  25
WAUKESHA       CLOUDY    30  27  86 W12       30.07R WCI  21
MILWAUKEE/TIMM CLOUDY    34  25  69 W13G20    30.06R WCI  25
RACINE         CLOUDY    35  25  66 NW9       30.07R WCI  28
BURLINGTON     CLOUDY    32  26  78 W8        30.06F WCI  25
KENOSHA        CLOUDY    34  27  75 NW13      30.05R WCI  25
FOND DU LAC    CLOUDY    31  25  78 W17G23    30.04R WCI  19
SHEBOYGAN      CLOUDY    32  29  88 W14       30.02R WCI  22
WEST BEND      CLOUDY    32  27  80 W7G18     30.03R WCI  26
JUNEAU         CLOUDY    30  25  82 W10G20    30.07R WCI  21
$$

LSZ147-162-280200-
LAKE SUPERIOR

STATION/POSITION TIME  TEMP    WIND        PRES    WAVE
                       AIR SEA DIR/SP/G            HT/PER
                 (UTC) (F)     (DEG/KT/KT) (MB)    (FT/S)
DEVILS ISLAND    0100   26     260/ 16/ 19 1016.4F
PORT WING        0040   23     190/  7/  9 1016.3F
SAXON HARBOR     0000   21     200/  3/  5 1016.3S
$$

LMZ867-665-643>646-280200-
LAKE MICHIGAN

STATION/POSITION TIME  TEMP    WIND        PRES    WAVE
                       AIR SEA DIR/SP/G            HT/PER
                 (UTC) (F)     (DEG/KT/KT) (MB)    (FT/S)
CHAMBERS ISLAND  0000   33     290/  2/  7 1014.6R
NORTHPORT PIER   0100   33     290/  8/ 18 1014.9R
SISTER BAY       0013          320/ 13/ 15   N/A
ALGOMA LAKESHORE 0015          300/  9/ 13   N/A
KEWAUNEE LAKESHO 0100   34     300/  4/  6 1014.8R
SHEBOYGAN LAKESH 0100   34 38  290/ 12/ 14 1017.4R
PORT WASHINGTON  0100   34     270/  8/ 20 1018.3
MILWAUKEE LAKESH 0100   35     280/ 12/ 17   N/A
KENOSHA   LAKESH 0100   35     300/ 10/ 15 1017.9R
$$

TC  - TEMPERATURE IN CELSIUS
VSB - VISIBILITY IN STATUTE MILES
WCI - WIND CHILL INDEX
HX  - HEAT INDEX



USA.gov is the U.S. government's official web portal to all federal, state and local government web resources and services.